Probability
0 0 0 0 0 0 0 0 1 2 3 3 4 5 5 6 6 6 6 6 6 5 2 0 0 0 0 0 0 0 0 1 0 0 1 2 3 4 5 5 5 5 5
0 0 0 0 0 0 0 0 0 1 2 2 3 5 5 6 6 6 6 6 6 4 1 0 0 0 0 0 0 0 0 1 0 0 0 1 2 3 4 4 3 3 4
0 0 0 0 0 0 0 0 1 1 1 1 3 4 5 6 6 6 6 6 4 2 0 0 0 0 0 0 0 0 0 0 0 0 0 0 1 2 3 2 1 1 1
0 0 1 1 0 0 0 1 1 0 1 2 3 4 5 6 6 6 6 6 3 1 0 0 0 0 0 0 0 0 0 0 0 0 0 0 0 1 2 2 0 0 0
1 1 2 2 1 0 0 0 0 0 0 1 2 3 4 6 6 6 6 5 3 1 0 0 0 0 0 0 0 0 0 0 0 0 0 0 0 1 2 1 1 1 1
2 3 3 3 2 1 0 0 0 0 0 0 1 2 3 5 6 5 4 3 1 0 0 0 0 0 0 0 0 0 0 0 0 0 0 0 0 0 1 1 1 2 2
3 3 3 3 3 2 1 0 0 1 1 1 1 1 3 4 4 3 1 1 0 0 0 0 0 0 0 0 0 0 0 0 0 0 0 0 0 0 0 0 1 1 2
3 3 3 4 4 3 1 0 0 1 1 1 0 1 2 3 2 1 0 0 0 0 0 0 0 0 0 0 0 0 0 0 0 0 0 0 0 0 0 0 0 0 1
3 3 3 3 3 2 1 0 0 1 1 0 0 1 1 1 1 0 0 0 0 0 0 0 0 0 0 0 0 0 0 0 0 0 0 0 0 0 0 0 0 0 0
3 3 3 3 2 1 0 0 0 0 0 0 0 0 0 0 0 0 0 0 0 0 0 0 0 0 0 0 0 0 0 0 0 0 0 0 0 0 0 0 0 0 0
3 3 3 3 2 1 1 1 1 0 0 0 0 0 0 0 0 0 0 0 1 0 0 0 0 0 0 0 0 0 0 0 0 0 0 0 0 0 0 0 0 0 0
3 3 3 3 3 2 3 2 1 0 0 0 0 0 0 0 0 0 0 0 0 0 0 0 0 0 0 0 0 0 0 0 0 0 0 1 0 0 0 0 0 0 1
3 2 2 3 3 3 3 3 2 1 0 0 0 0 0 0 0 0 0 0 0 0 0 0 0 0 0 0 0 0 0 0 0 0 0 1 1 1 1 1 0 0 1
3 2 2 3 3 3 3 3 2 1 0 0 0 0 0 0 0 0 0 0 0 0 0 0 0 0 0 0 0 0 0 0 0 0 1 2 2 2 2 2 1 0 1
3 3 3 3 3 3 3 3 2 1 0 0 0 0 0 0 0 0 0 0 0 0 0 0 0 0 0 0 0 0 0 0 0 0 1 3 3 3 3 3 2 0 0
2 3 3 3 2 3 3 3 2 1 0 0 0 0 0 0 0 0 0 0 0 0 0 0 0 0 0 0 0 0 0 0 0 0 0 1 2 2 2 2 1 0 0
1 1 1 1 1 2 3 3 2 1 0 0 0 0 0 0 0 0 0 0 0 0 0 0 0 0 0 0 0 0 0 0 0 0 0 0 0 1 1 1 0 0 0
1 0 0 1 1 1 2 3 2 1 0 0 0 0 0 0 0 0 0 0 0 0 0 0 0 0 0 0 0 0 0 0 0 0 0 0 0 0 0 0 0 0 1
0 0 1 1 2 1 1 2 1 0 0 0 0 0 0 0 0 0 0 0 0 0 0 0 0 0 0 0 0 0 0 0 0 0 0 0 0 0 0 0 0 0 1
1 1 2 2 3 2 2 1 0 0 0 0 0 0 0 0 0 0 0 0 0 0 0 0 0 0 0 0 0 0 0 0 0 0 0 0 0 0 0 0 0 0 1
2 2 2 3 4 4 3 2 0 0 0 0 0 0 0 0 0 0 0 0 0 0 0 0 0 0 0 0 0 0 0 0 0 0 0 0 0 0 0 0 0 0 0
1 1 1 2 2 3 2 1 0 0 0 0 0 0 0 0 0 0 0 0 0 0 0 0 0 0 0 0 0 0 0 0 0 0 0 0 0 0 0 0 0 0 0
0 0 1 1 1 1 1 0 0 0 0 0 0 0 0 0 0 0 0 0 0 0 0 0 0 0 0 0 0 0 0 0 0 0 0 0 0 0 0 0 0 0 0
0 0 0 0 0 0 0 0 0 0 0 0 0 0 0 0 0 0 0 0 0 0 0 0 0 0 0 0 0 0 0 0 0 0 0 0 0 0 0 0 0 0 0
0 0 0 0 0 0 0 0 0 0 0 0 0 0 0 0 0 0 0 0 0 0 0 0 0 0 0 0 0 0 0 0 0 0 0 0 0 0 0 0 0 0 0
0 0 0 0 0 0 0 0 0 0 0 0 0 0 0 0 0 0 0 0 0 0 0 0 0 0 0 0 0 0 0 0 0 0 0 0 0 0 0 0 0 0 0
Wind_Speed
2 3 3 3 5 6 6 6 7 8 8 8 8 8 9 10 10 10 10 10 9 10 10 10 10 11 11 11 10 10 10 10 10 9 9 9 9 9 10 10 8 5 9
1 1 1 4 6 6 7 7 8 8 9 9 9 9 10 10 10 10 10 10 10 10 10 11 10 11 11 11 11 10 11 10 10 10 10 8 9 9 9 9 8 5 9
2 0 1 4 6 7 8 8 9 9 10 10 11 11 11 11 10 10 10 10 10 11 11 11 11 11 11 11 11 11 11 11 10 10 8 5 5 9 9 9 8 8 8
2 1 2 5 6 8 8 9 10 10 10 11 11 12 12 11 11 10 10 11 11 11 11 11 11 11 11 11 10 10 10 10 10 9 5 4 4 8 9 8 8 8 8
3 2 2 6 7 8 9 9 10 10 10 10 10 11 11 11 11 11 11 11 11 11 11 11 11 10 10 10 10 10 10 10 10 8 5 4 3 7 8 8 8 8 7
3 3 3 6 7 8 9 9 10 10 10 10 10 10 10 10 11 11 11 11 11 11 11 11 11 10 10 10 10 10 10 10 8 5 4 4 3 7 8 8 8 7 7
3 3 3 6 7 8 9 9 10 10 10 10 10 10 11 11 11 11 11 11 11 11 11 11 10 10 10 9 10 9 9 9 6 4 4 3 4 7 8 7 7 6 6
4 3 3 5 7 8 8 8 9 9 9 10 10 10 11 10 11 11 11 11 11 11 11 11 10 10 10 9 9 9 9 8 6 5 3 3 5 7 7 7 7 6 6
4 4 3 3 4 6 7 8 9 9 10 10 10 10 10 11 11 11 11 11 11 11 10 10 10 10 9 9 9 9 9 9 5 3 3 2 4 6 7 7 7 7 6
4 4 3 3 4 3 3 7 8 9 9 9 9 10 10 10 10 10 10 11 11 11 11 10 10 9 9 9 9 9 9 7 4 3 2 3 5 6 7 7 7 7 7
3 3 3 3 3 3 3 5 6 7 8 8 7 9 8 5 5 6 8 10 10 10 10 10 10 9 9 8 9 9 7 3 3 3 2 5 6 6 7 7 7 7 7
2 1 2 2 2 2 3 3 3 3 4 4 4 5 4 4 4 6 8 10 10 10 10 10 10 9 6 4 6 7 3 4 3 2 3 6 6 7 7 7 7 7 7
3 2 1 1 2 2 2 2 2 2 3 3 4 4 3 3 3 4 3 4 5 7 5 6 6 4 4 4 3 3 4 3 2 2 3 6 7 8 8 9 9 8 8
3 2 2 2 2 2 2 2 2 2 2 2 2 3 3 2 3 3 2 3 3 2 3 4 3 4 5 5 4 4 4 3 3 3 3 7 7 8 9 9 9 9 9
3 3 3 2 2 2 2 1 2 1 2 2 2 2 2 2 2 2 2 2 3 2 3 3 4 4 4 5 4 5 5 5 5 4 3 8 8 8 9 9 9 9 9
3 3 3 3 2 3 2 1 1 1 2 2 2 2 2 2 2 2 2 3 2 2 2 3 3 3 3 4 5 4 4 4 5 5 4 6 9 9 8 9 9 9 8
4 3 3 3 3 3 2 2 2 2 2 2 1 2 2 2 2 3 2 2 2 2 3 3 4 3 3 4 4 4 4 4 4 5 5 4 5 8 9 9 8 8 8
3 3 3 4 4 3 2 2 2 2 2 1 1 2 2 2 2 3 3 2 2 2 2 3 3 3 3 3 3 3 3 3 4 4 4 5 4 4 6 9 8 8 8
4 3 3 3 4 3 3 3 2 2 2 1 2 2 2 2 3 3 2 2 2 3 2 3 3 2 3 3 3 3 3 3 3 4 5 5 4 4 4 6 8 8 7
3 3 3 3 3 3 3 3 3 3 2 2 1 1 2 2 3 3 2 2 2 2 2 3 3 3 2 2 3 4 3 3 3 3 3 3 4 4 4 4 4 5 7
3 3 3 4 3 3 2 2 2 1 0 1 1 1 2 2 2 2 2 2 2 2 2 3 3 3 2 2 3 3 3 3 3 3 3 3 4 3 3 4 3 3 3
4 3 3 3 4 3 2 2 2 2 1 1 1 1 1 1 2 2 2 2 2 2 2 2 3 2 1 1 2 2 2 3 3 3 2 2 3 2 3 3 3 3 2
4 4 4 4 4 3 3 2 3 3 2 2 1 0 0 1 1 2 2 2 2 2 2 2 2 3 2 1 1 2 3 1 1 2 2 2 3 2 2 2 3 3 3
6 4 4 4 4 3 4 4 4 3 2 2 1 1 0 1 1 1 2 2 2 1 2 2 2 2 3 2 1 1 1 3 2 1 2 2 2 2 2 2 2 2 2
5 4 3 3 3 4 4 4 4 3 2 1 1 1 0 0 0 1 1 2 2 1 1 1 2 2 2 2 2 1 1 2 2 2 1 2 2 2 1 1 1 2 2
3 3 4 4 3 4 4 4 4 4 3 3 1 1 1 0 0 0 1 1 1 1 2 1 2 2 2 2 2 2 2 2 2 2 2 1 1 2 2 1 1 2 2
Wind_Direction
292 297 324 56 53 54 60 69 78 83 84 86 88 93 93 90 89 89 88 86 86 87 87 89 90 91 93 96 97 96 97 97 94 91 88 89 95 100 105 111 114 115 121
213 289 42 67 60 63 68 72 82 87 86 83 80 87 92 92 91 89 89 88 89 89 89 91 92 90 90 91 93 94 92 92 90 87 84 82 88 94 99 107 113 111 114
118 24 65 72 68 69 74 77 82 85 84 81 77 83 89 90 90 88 87 87 89 90 92 93 93 93 91 91 90 90 89 88 85 80 73 63 80 93 97 105 109 109 109
112 69 80 84 77 76 80 81 83 83 82 82 80 82 85 86 85 85 85 86 87 88 91 92 93 95 94 93 93 93 89 86 82 78 61 53 68 90 95 104 106 107 106
90 65 76 88 86 82 81 85 87 87 86 84 82 82 83 84 84 84 84 84 85 85 86 91 93 95 96 94 92 90 88 83 77 67 58 52 58 86 92 99 100 103 105
86 67 73 87 88 86 83 86 91 89 87 86 84 83 81 82 81 79 81 81 81 82 83 84 88 89 91 92 90 86 83 80 71 61 56 54 62 82 89 94 93 95 101
91 70 71 88 89 87 85 85 88 88 87 84 83 81 80 79 79 78 77 77 76 78 81 82 83 84 84 87 88 84 80 77 72 65 54 50 69 84 89 94 95 96 99
102 83 69 85 87 85 87 87 89 89 86 83 81 80 81 80 76 76 74 74 75 76 79 81 81 80 80 84 86 85 80 75 70 68 57 50 77 87 92 95 96 101 103
82 75 57 54 67 78 82 84 85 85 83 82 80 78 78 74 73 73 72 72 74 74 78 79 76 75 76 81 84 83 81 73 61 57 66 58 77 84 88 91 94 97 100
72 65 55 48 47 48 59 78 79 80 79 77 76 76 71 66 64 67 66 69 72 73 72 73 74 72 74 77 82 81 75 67 53 47 44 69 84 86 88 90 90 91 91
83 64 63 55 47 43 47 67 66 69 67 67 65 69 64 50 47 53 62 67 70 69 68 67 69 69 70 70 74 72 66 51 47 44 41 70 80 83 83 87 84 84 85
136 114 81 72 60 47 51 54 45 50 49 52 57 59 55 50 48 57 58 64 65 66 65 65 65 61 60 55 57 59 53 45 44 33 49 66 75 79 78 81 80 79 81
163 145 114 108 83 69 52 56 46 45 44 45 53 61 61 55 50 49 48 46 47 53 51 54 52 48 52 56 55 54 51 47 36 24 45 64 76 80 78 74 71 70 76
151 163 152 138 108 86 71 63 60 57 51 47 42 64 73 66 57 55 52 44 45 46 56 53 55 53 54 54 59 59 52 46 38 23 26 59 76 84 83 79 74 70 72
160 173 169 149 136 109 87 77 76 65 65 62 52 60 84 86 74 64 55 53 52 56 66 65 58 56 54 51 55 60 54 48 44 35 29 53 66 73 78 79 77 72 69
170 179 162 154 149 127 115 107 96 81 73 68 60 61 77 95 95 80 66 57 52 55 66 73 66 61 57 57 51 51 52 48 45 41 37 42 53 64 71 71 69 67 65
172 172 160 160 142 135 134 133 104 91 88 81 72 73 78 90 101 100 88 70 54 62 73 75 67 63 64 58 49 44 48 46 46 43 41 38 37 49 59 64 62 60 59
162 164 162 157 139 139 136 124 103 96 94 85 77 73 78 85 101 101 96 83 69 72 75 81 71 72 63 60 53 39 39 41 45 45 45 43 39 37 45 56 57 55 52
161 159 152 138 141 141 121 103 99 88 85 83 80 77 83 86 92 102 100 93 85 79 71 85 68 78 79 67 63 47 37 39 37 46 46 43 42 41 38 44 49 49 46
147 148 151 133 128 123 105 89 80 71 63 66 75 86 85 85 95 97 98 97 98 91 75 80 84 68 74 69 69 54 39 36 39 41 39 39 41 42 39 39 34 32 36
136 149 155 142 137 133 123 121 117 113 76 58 59 85 86 95 103 106 99 94 100 104 108 107 97 81 60 56 72 44 25 34 42 36 34 37 36 35 39 39 34 31 18
161 163 153 152 153 161 158 148 139 133 131 119 55 63 80 99 112 113 118 109 112 112 104 109 106 101 73 60 101 91 29 3 8 21 25 39 27 27 33 34 32 28 20
174 176 169 164 161 166 147 114 90 74 57 52 50 43 7 121 124 115 119 117 114 129 146 149 138 128 134 55 73 126 134 204 318 349 8 21 18 22 14 16 29 20 18
190 176 166 165 159 161 152 149 146 144 159 199 186 179 169 143 138 128 126 126 133 126 150 171 146 139 139 144 77 54 121 150 144 339 338 354 8 12 359 11 14 9 11
180 164 167 157 162 164 165 166 159 151 163 155 123 125 129 87 123 137 143 139 143 145 161 166 146 141 147 158 159 140 97 77 103 142 249 324 346 340 339 345 358 352 353
162 157 166 166 176 173 170 169 170 165 159 146 150 161 193 261 302 170 154 153 159 166 178 187 175 162 163 157 156 155 157 154 167 151 168 236 295 306 329 345 351 336 334